Regional Weather Roundup
Issued by NWS

Home | Current Version | Previous Version | Graphics & Text | Print | Product List | Glossary On
Versions: 1 2 3 4 5 6 7 8 9 10 11 12 13 14 15 16 17 18 19 20 21 22 23 24 25 26 27 28 29 30 31 32 33 34 35 36 37 38 39 40 41 42 43 44 45 46 47 48 49 50
000
ASUS45 KTFX 291419
RWRMT
MONTANA HOURLY WEATHER ROUNDUP
NATIONAL WEATHER SERVICE GREAT FALLS MT
819 AM MDT TUE JUL 29 2014

NOTE: "FAIR" INDICATES FEW OR NO CLOUDS BELOW 12000 FEET WITH NO
SIGNIFICANT WEATHER AND/OR OBSTRUCTIONS TO VISIBILITY.

* THESE STATIONS ARE NOT UNDER NWS QUALITY CONTROL. THEY DO NOT
   REPORT WEATHER SUCH AS PRECIPITATION OR FOG.

MTZ001>007-043-291500-
WEST OF THE DIVIDE
CITY           SKY/WX    TMP DP  RH WIND       PRES   REMARKS
KALISPELL      SUNNY     64  50  61 CALM      30.17R
MISSOULA       SUNNY     64  45  50 CALM      30.20S
BUTTE          PTCLDY    55  41  59 S7        30.32R
MULLAN PASS    SUNNY     70  39  32 SE6       30.34R
* LINCOLN      N/A       51  47  86 NW1        N/A
* LOOKOUT PASS N/A       61  45  56 S1         N/A
* POLSON       N/A       59  47  65 N/A        N/A
* RONAN APT    SUNNY     57  52  83 N/A        N/A
* SEELEY LAKE  N/A       45  41  86 N2G7       N/A
* THOMP F APT  SUNNY     64  44  48 N3G10      N/A
* YAAK HILL    N/A       56  49  77 SE2        N/A
$$

MTZ008-052>055-291500-
SOUTHWEST MONTANA
CITY           SKY/WX    TMP DP  RH WIND       PRES   REMARKS
BOZEMAN        SUNNY     63  46  54 CALM      30.25S
DILLON         PTCLDY    61  43  52 S8        30.28R
W YELLOWSTONE  CLOUDY    55  54  96 CALM      30.40R
* THREE FORKS  SUNNY     57  57 100 N/A        N/A
* BOULDER HILL N/A       62  39  43 S6         N/A
* MONIDA PASS  N/A       56  43  62 W4         N/A
* RAYNOLDS PAS N/A       54  38  55 S3         N/A
* WHITEHALL    N/A       55  46  72 SE1        N/A
* WISE RIVER   N/A       48  43  83 W3         N/A
$$

MTZ009>010-012-014-046-048-049-054-291500-
EAST SLOPES AND CENTRAL MONTANA
CITY           SKY/WX    TMP DP  RH WIND       PRES   REMARKS
CUT BANK       PTCLDY    63  48  58 CALM      30.23R
GREAT FALLS    PTCLDY    66  48  52 W3        30.20R
HELENA         PTCLDY    64  46  52 CALM      30.22S
MALMSTROM AFB  PTCLDY    66  50  56 SW8       30.21S
* CONRAD       SUNNY     61  61 100 N/A        N/A
* DEARBORN     N/A       61  52  72 S2         N/A
* EAST GLACIER N/A       57  46  67 N9         N/A
* ROGERS PASS  N/A       63  42  46 E1         N/A
* SAINT MARY   N/A       45  44  96 SE2        N/A
* SWEET GRASS  N/A       66  47  51 SW8        N/A
* WHITE SULPH  N/A       61  43  52 E8         N/A
$$

MTZ011-013-016-021-035-040-045-047-050-051-291500-
NORTH CENTRAL MONTANA
CITY           SKY/WX    TMP DP  RH WIND       PRES   REMARKS
HAVRE          PTCLDY    66  48  52 NE5       30.18R
LEWISTOWN      PTSUNNY   72  48  43 VRB5      30.26R
* FORT BENTON  PTCLDY    73  48  41 E3        30.19R
* CHESTER      N/A       66  50  56 NE3        N/A
* DENTON       N/A       74  50  43 SE11G16    N/A
* JUDITH GAP   N/A       67  46  47 S9         N/A
* LOMA         N/A       71  49  46 NE9        N/A
$$

MTZ017>020-022>027-061-062-291500-
NORTHEAST MONTANA
CITY           SKY/WX    TMP DP  RH WIND       PRES   REMARKS
GLASGOW        PTCLDY    70  52  53 E7        30.21R
GLENDIVE       PTSUNNY   66  52  61 SW5       30.24S
JORDAN         CLOUDY    72  52  49 CALM      30.20R
SIDNEY         PTCLDY    66  54  65 S3        30.23S
WOLF POINT     PTCLDY    64  52  65 E5        30.22S
* BEAVER HILL  N/A       68  53  59 SW8        N/A
* CIRCLE       N/A       64  54  70 N/A        N/A
* LINDSAY DVD  N/A       65  54  68 NW8        N/A
$$

MTZ028>042-056>058-291500-
SOUTHCENTRAL AND SOUTHEAST MONTANA
CITY           SKY/WX    TMP DP  RH WIND       PRES   REMARKS
BAKER          SUNNY     64  54  70 CALM      30.26R
BILLINGS       PTSUNNY   68  48  49 NE10      30.23R
LIVINGSTON     PTCLDY    70  43  38 SE9       30.29R
MILES CITY     CLOUDY    70  52  53 E3        30.23R
* LAUREL APT   PTSUNNY   68  46  45 N/A        N/A
* ROUNDUP APT  PTSUNNY   68  46  45 NE6        N/A
* ALZADA       N/A       63  51  65 N/A        N/A
* HYSHAM       N/A       68  51  55 E10        N/A
* LAME DEER    N/A       65  53  65 N/A        N/A
* REED POINT   N/A       65  47  52 W7         N/A
* ROSCOE HILL  N/A       63  40  43 W2G7       N/A
$$

REGIONAL REPORTS...DAKOTAS
CITY           SKY/WX    TMP DP  RH WIND       PRES   REMARKS
WILLISTON      SUNNY     64  55  73 CALM      30.21S
DICKINSON      SUNNY     63  54  73 S6        30.23R
CROSBY         SUNNY     66  61  84 CALM      30.22S
TIOGA          SUNNY     64  64 100 S6        30.25S
WATFORD CITY   SUNNY     66  55  68 S3        30.20S
BISMARCK       SUNNY     61  54  78 CALM      30.25R
GRAND FORKS    SUNNY     64  57  78 NW5       30.18S
FARGO          SUNNY     64  55  73 CALM      30.19S
BUFFALO SD     PTCLDY    63  54  73 S5        30.19F
RAPID CITY     CLOUDY    63  55  75 CALM      30.26F
$$

REGIONAL REPORTS...WYOMING/IDAHO/WASHINGTON
CITY           SKY/WX    TMP DP  RH WIND       PRES   REMARKS
GILLETTE       CLOUDY    63  59  87 S15       30.26F
SHERIDAN       CLOUDY    64  55  73 S5        30.26R
YELLOWSTONE LA CLOUDY    52  48  86 CALM      30.48S
SALMON         PTCLDY    59  50  72 CALM      30.24S
MULLAN PASS    SUNNY     70  39  32 SE6       30.34S
SAND POINT     SUNNY     63  52  68 CALM      30.13R
SPOKANE        SUNNY     70  50  49 NE6       30.10R
$$

REGIONAL REPORTS...ALBERTA
CITY           SKY/WX    TMP DP  RH WIND       PRES   REMARKS
CALGARY        N/A       63  52  68 NW5       30.19S
LETHBRIDGE     N/A       61  54  78 SW6       30.19R
MEDICINE HAT   N/A       64  55  73 VRB2      30.19R
EDMONTON       SUNNY     63  59  87 SE7       30.14S
WATERTON GATE  N/A       61  50  67 SW7        N/A
CARDSTON       N/A       61  54  78 CALM       N/A
MILK RIVER     N/A       66  50  56 SW5        N/A
$$

REGIONAL REPORTS...SASKATCHEWAN
CITY           SKY/WX    TMP DP  RH WIND       PRES   REMARKS
SWIFT CURRENT  SUNNY     64  55  73 E8        30.23S
MOOSE JAW      N/A       63  61  93 NW3       30.24R
REGINA         N/A       66  61  84 N6        30.23S
VAL MARIE      N/A       64  57  78 NE5        N/A
ASSINIBOIA     N/A       63  57  81 W2         N/A
CORONACH       N/A       64  59  84 NW5        N/A

$$



USA.gov is the U.S. government's official web portal to all federal, state and local government web resources and services.